Location: Darmstadt
(49.8706°N, 8.6494°E)
Time: 07:16:35
(UTC+01:00)

Cosmos 44 - Pass Details

Date: 31 October 2020
Orbit: 577 x 785 km, 65.1° (Epoch: 03 December)

Event Time Altitude Azimuth Distance (km) Brightness Sun altitude
Rises 17:55:01 0° 230° (SW) 2,883 7.7 -8.8°
Reaches altitude 10° 17:57:15 10° 234° (SW) 2,009 6.9 -9.1°
Maximum altitude 18:01:45 59° 315° (NW) 762 3.7 -9.8°
Drops below altitude 10° 18:06:35 10° 35° (NE) 2,152 5.4 -10.6°
Enters shadow 18:07:37 - 37° (NE) 2,551 5.8 -10.8°
